Weather History for Fort Smith, AR

Change the Weather History Date:

Friday, August 29, 2014

  Actual Average Record
Temperature  
Mean Temperature 81 °F 80 °F  
Max Temperature 90 °F 92 °F 105 °F (2000)
Min Temperature 72 °F 69 °F 51 °F (1986)
Cooling Degree Days 16 15  
Month to date cooling degree days 493 502  
Year to date cooling degree days 1628 1667  
Since 1 June cooling degree days 1350 1423  
Growing Degree Days 31 (Base 50)    
Moisture  
Dew Point 70 °F    
Average Humidity 70    
Maximum Humidity 94    
Minimum Humidity 46    
Precipitation  
Precipitation 0.10 in 0.08 in 1.22 in (1935)
Month to date precipitation 1.49 2.41  
Year to date precipitation 23.36 29.18  
Sea Level Pressure  
Sea Level Pressure 29.90 in    
Wind  
Wind Speed 7 mph (SE)    
Max Wind Speed 21 mph    
Max Gust Speed 26 mph    
Visibility 10 miles    
Events Rain , Thunderstorm    
T = Trace of Precipitation, MM = Missing Value Source: NWS Daily Summary

Daily Weather History Graph

Daily Weather History Graph

Search for Another Location

Airport:

Trip Planner

Search our weather history database for the weather conditions in past years. The results will help you decide how hot, cold, wet, or windy it might be!

Date:

Astronomy

Aug. 29, 2014 Rise Set
Actual Time 6:47 AM CDT 7:48 PM CDT
Civil Twilight 6:21 AM CDT 8:14 PM CDT
Nautical Twilight 5:50 AM CDT 8:45 PM CDT
Astronomical Twilight 5:18 AM CDT 9:17 PM CDT
Moon 10:28 AM CDT (8/29) 9:57 PM CDT (8/29)
Length of Visible Light 13h 53m
Length of Day
13h 00m
Waxing Crescent, 15% of the Moon is Illuminated
Aug 29
Waxing Crescent
Sep 2
First Quarter
Sep 8
Full
Sep 15
Last Quarter
Sep 24
New

Hourly Weather History & Observations

Time (CDT) Temp. Heat Index Dew Point Humidity Pressure Visibility Wind Dir Wind Speed Gust Speed Precip Events Conditions
12:53 AM 77.0 °F - 68.0 °F 74% 29.90 in 10.0 mi East 3.5 mph - N/A   Clear
1:53 AM 75.9 °F - 69.1 °F 79% 29.88 in 10.0 mi ENE 5.8 mph - N/A   Clear
2:53 AM 75.9 °F - 69.1 °F 79% 29.87 in 10.0 mi NE 6.9 mph - N/A   Clear
3:53 AM 75.0 °F - 69.1 °F 82% 29.88 in 10.0 mi East 6.9 mph - N/A   Mostly Cloudy
4:53 AM 75.9 °F - 69.1 °F 79% 29.88 in 10.0 mi East 4.6 mph - N/A   Overcast
5:53 AM 77.0 °F - 69.1 °F 76% 29.89 in 10.0 mi ENE 3.5 mph - N/A   Overcast
6:53 AM 75.0 °F - 70.0 °F 84% 29.90 in 10.0 mi NNE 3.5 mph - N/A   Partly Cloudy
7:53 AM 77.0 °F - 69.1 °F 76% 29.89 in 10.0 mi ESE 6.9 mph - N/A   Clear
8:53 AM 81.0 °F 84.4 °F 70.0 °F 69% 29.90 in 10.0 mi SE 5.8 mph - N/A   Clear
9:53 AM 86.0 °F 90.7 °F 70.0 °F 59% 29.90 in 10.0 mi WSW 10.4 mph - N/A   Scattered Clouds
10:53 AM 86.0 °F 91.5 °F 71.1 °F 61% 29.91 in 10.0 mi West 12.7 mph - N/A   Scattered Clouds
11:53 AM 88.0 °F 89.6 °F 64.9 °F 46% 29.91 in 10.0 mi West 12.7 mph - N/A   Scattered Clouds
12:53 PM 86.0 °F 90.1 °F 69.1 °F 57% 29.89 in 10.0 mi WSW 5.8 mph - N/A   Partly Cloudy
1:01 PM 86.0 °F 90.1 °F 69.1 °F 57% 29.91 in 10.0 mi WSW 9.2 mph - N/A Thunderstorm Thunderstorm
1:43 PM 73.9 °F - 71.1 °F 91% 29.94 in 3.0 mi South 16.1 mph 25.3 mph 0.04 in Rain Rain
1:50 PM 73.4 °F - 69.8 °F 88% 29.94 in 5.0 mi South 12.7 mph 23.0 mph 0.06 in Rain , Thunderstorm Light Thunderstorms and Rain
1:53 PM 72.0 °F - 69.1 °F 91% 29.93 in 6.0 mi South 12.7 mph - 0.06 in Rain , Thunderstorm Light Thunderstorms and Rain
2:29 PM 75.9 °F - 72.0 °F 87% 29.92 in 10.0 mi SSW 5.8 mph - 0.03 in Rain Light Rain
2:53 PM 78.8 °F - 71.6 °F 78% 29.91 in 10.0 mi SSW 4.6 mph - N/A   Partly Cloudy
3:53 PM 80.1 °F 82.9 °F 69.1 °F 69% 29.90 in 10.0 mi SW 6.9 mph - N/A   Partly Cloudy
4:53 PM 78.1 °F - 72.0 °F 81% 29.88 in 10.0 mi SSE 5.8 mph - 0.01 in   Mostly Cloudy
5:53 PM 79.0 °F - 72.0 °F 79% 29.89 in 10.0 mi SSE 6.9 mph - N/A   Mostly Cloudy
6:53 PM 79.0 °F - 71.1 °F 77% 29.87 in 10.0 mi SE 4.6 mph - N/A   Clear
7:53 PM 77.0 °F - 71.1 °F 82% 29.87 in 10.0 mi East 5.8 mph - N/A   Clear
8:53 PM 75.9 °F - 71.1 °F 85% 29.89 in 10.0 mi East 4.6 mph - N/A   Clear
9:53 PM 75.2 °F - 73.4 °F 94% 29.92 in 10.0 mi East 6.9 mph - N/A   Clear
10:53 PM 73.9 °F - 72.0 °F 93% 29.92 in 10.0 mi ENE 5.8 mph - N/A   Clear
11:53 PM 75.0 °F - 72.0 °F 90% 29.93 in 10.0 mi ENE 6.9 mph - N/A   Partly Cloudy